Location: Moulis
(42.9609°N, 1.0909°E)
Time: 15:01:26
(UTC+00:00)

IRIDIUM 103 - Pass Details

Date: 11 December 2025
Orbit: 776 x 779 km, 86.4° (Epoch: 19 January)

Event Time Altitude Azimuth Distance (km) Brightness Sun altitude
Rises 16:56:17 0° 1° (N) 3,272 7.3 -6.5°
Reaches altitude 10° 16:58:41 10° 6° (N) 2,339 6.5 -6.9°
Maximum altitude 17:03:50 56° 84° (E) 926 4.4 -7.7°
Drops below altitude 10° 17:08:56 10° 162° (SSE) 2,320 6.9 -8.6°
Sets 17:11:18 0° 167° (SSE) 3,243 7.7 -9.0°
